User: anonymous
Location: Unspecified
(0.0000°N, 0.0000°E)
Time: 07:58:45
(UTC+02:00)
Language:

Meteor 1-31 Rocket - Orbit

View from above orbital plane
View from above orbital plane
View from above satellite
View from above satellite

Ground track
Ground track

The orbit data is extracted from the following two-line orbital elements,

1 12586U 81065B   14273.42501065  .00004334  00000-0  29612-3 0  4859
2 12586 097.4097 268.2378 0020648 006.6798 353.4701 15.06490436807109
Epoch (UTC): 30 September 2014 10:12:00
Eccentricity: 0.0020648
inclination: 97.4097°
perigee height: 532 km
apogee height: 561 km
right ascension of ascending node: 268.2378°
argument of perigee: 6.6798°
revolutions per day: 15.06490436
mean anomaly at epoch: 353.4701°
orbit number at epoch: 80710

The dashed part of the orbit path shows where the satellite is in the earth's shadow,  

DLR